Wichita, KS

6:37 PM CST on January 24, 2017 (GMT -0600)
Wichita Eisenhower National Airport

Weather History for KICT - February, 2013

Change the Weather History Date:

Tuesday, February 26, 2013

  Actual Average Record
Temperature  
Mean Temperature 32 °F 41 °F  
Max Temperature 36 °F 52 °F 78 °F (1896)
Min Temperature 28 °F 30 °F 0 °F (1934)
Degree Days  
Heating Degree Days 33 24  
Month to date heating degree days 750 731  
Since 1 July heating degree days 3205 3591  
Cooling Degree Days 0 0  
Month to date cooling degree days 0 0  
Year to date cooling degree days 0 0  
Moisture  
Dew Point 27 °F    
Average Humidity 85    
Maximum Humidity 100    
Minimum Humidity 69    
Precipitation  
Precipitation 0.28 in 0.05 in 0.91 in (1903)
Month to date precipitation 2.42 1.08  
Year to date precipitation 2.99 1.91  
Snow  
Snow 2.00 in 0.00 in 3.20 in (1912)
Month to date snowfall 21.0 3.0  
Since 1 July snowfall 24.3 12.2  
Snow Depth 11.00 in    
Sea Level Pressure  
Sea Level Pressure 29.81 in    
Wind  
Wind Speed 16 mph (NNW)    
Max Wind Speed 32 mph    
Max Gust Speed 39 mph    
Visibility 4 miles    
Events Snow    
T = Trace of Precipitation, MM = Missing Value Source: NWS Daily Summary

Daily Weather History Graph

Daily Weather History Graph

Search for Another Location

Airport or City:

Trip Planner

Search our weather history database for the weather conditions in past years. The results will help you decide how hot, cold, wet, or windy it might be!

Date:

Astronomy

Feb. 26, 2013 Rise Set
Actual Time 7:04 AM CST 6:20 PM CST
Civil Twilight 6:38 AM CST 6:47 PM CST
Nautical Twilight 6:08 AM CST 7:17 PM CST
Astronomical Twilight 5:37 AM CST 7:47 PM CST
Moon 7:36 PM CST (2/26) 7:10 AM CST (2/26)
Length of Visible Light 12h 08m
Length of Day
11h 15m
Full, 99% of the Moon is Illuminated
Feb 26
Full
Mar 4
Last Quarter
Mar 11
New
Mar 19
First Quarter
Mar 27
Full

Hourly Weather History & Observations

Time (CST) Temp. Windchill Dew Point Humidity Pressure Visibility Wind Dir Wind Speed Gust Speed Precip Events Conditions
12:53 AM 32.0 °F 18.6 °F 30.9 °F 96% 29.75 in 0.8 mi NNW 25.3 mph 38.0 mph 0.01 in Snow Light Snow
1:03 AM 32.0 °F 19.2 °F 30.2 °F 93% 29.72 in 1.2 mi North 23.0 mph 33.4 mph 0.01 in Snow Light Snow
1:43 AM 32.0 °F 19.2 °F 30.2 °F 93% 29.72 in 1.2 mi North 23.0 mph 36.8 mph 0.02 in Snow Light Snow
1:53 AM 32.0 °F 19.5 °F 30.9 °F 96% 29.75 in 1.0 mi North 21.9 mph 36.8 mph 0.02 in Snow Light Snow
2:04 AM 30.2 °F 17.1 °F 30.2 °F 100% 29.72 in 0.8 mi North 21.9 mph 33.4 mph 0.00 in Snow Light Snow
2:27 AM 30.2 °F 15.7 °F 30.2 °F 100% 29.72 in 1.0 mi North 27.6 mph 33.4 mph 0.01 in Snow Light Snow
2:34 AM 30.2 °F 17.1 °F 30.2 °F 100% 29.72 in 0.8 mi North 21.9 mph 33.4 mph 0.01 in Snow Light Snow
2:53 AM 30.9 °F 17.2 °F 30.9 °F 100% 29.76 in 0.8 mi NNW 25.3 mph 29.9 mph 0.01 in Snow Light Snow
3:37 AM 30.2 °F 16.2 °F 30.2 °F 100% 29.72 in 1.0 mi NNW 25.3 mph 32.2 mph 0.01 in Snow Light Snow
3:53 AM 30.9 °F 17.8 °F 30.0 °F 96% 29.75 in 1.2 mi NNW 23.0 mph 33.4 mph 0.01 in Snow Light Snow
4:53 AM 30.9 °F 18.1 °F 30.0 °F 96% 29.75 in 1.8 mi NNW 21.9 mph - 0.00 in Snow Light Snow
5:02 AM 30.2 °F 17.4 °F 30.2 °F 100% 29.72 in 2.5 mi NNW 20.7 mph 28.8 mph 0.00 in Snow Light Snow
5:09 AM 30.2 °F 17.1 °F 30.2 °F 100% 29.72 in 3.0 mi NNW 21.9 mph 26.5 mph 0.00 in Snow Blowing Snow
5:53 AM 30.0 °F 16.0 °F 28.0 °F 92% 29.73 in 3.0 mi NNW 25.3 mph 29.9 mph 0.00 in   Overcast
6:53 AM 28.9 °F 15.4 °F 26.1 °F 89% 29.74 in 3.0 mi NNW 21.9 mph - N/A   Overcast
7:53 AM 28.0 °F 14.6 °F 25.0 °F 88% 29.76 in 3.0 mi NNW 20.7 mph - 0.00 in   Scattered Clouds
8:53 AM 30.0 °F 17.2 °F 25.0 °F 82% 29.78 in 5.0 mi NNW 20.7 mph 28.8 mph N/A   Haze
9:53 AM 30.9 °F 19.1 °F 26.1 °F 82% 29.82 in 7.0 mi NNW 18.4 mph - N/A   Mostly Cloudy
10:53 AM 33.1 °F 23.4 °F 27.0 °F 78% 29.81 in 7.0 mi North 13.8 mph - N/A   Mostly Cloudy
11:53 AM 35.1 °F 24.8 °F 27.0 °F 72% 29.82 in 8.0 mi NNW 17.3 mph 24.2 mph N/A   Mostly Cloudy
12:53 PM 35.1 °F 24.8 °F 27.0 °F 72% 29.81 in 8.0 mi NNW 17.3 mph - N/A   Mostly Cloudy
1:53 PM 35.1 °F 24.8 °F 27.0 °F 72% 29.80 in 8.0 mi NW 17.3 mph - N/A   Mostly Cloudy
2:53 PM 35.1 °F 26.4 °F 26.1 °F 70% 29.81 in 8.0 mi NW 12.7 mph - N/A   Scattered Clouds
3:53 PM 35.1 °F 26.9 °F 26.1 °F 70% 29.83 in 8.0 mi NNW 11.5 mph - N/A   Scattered Clouds
4:53 PM 34.0 °F 25.0 °F 26.1 °F 73% 29.85 in 7.0 mi NW 12.7 mph - N/A   Scattered Clouds
5:53 PM 34.0 °F 26.0 °F 25.0 °F 70% 29.86 in 6.0 mi North 10.4 mph - N/A   Haze
6:53 PM 32.0 °F 23.0 °F 24.1 °F 73% 29.91 in 7.0 mi NNW 11.5 mph - N/A   Scattered Clouds
7:40 PM 28.4 °F 20.4 °F 24.8 °F 86% 29.91 in 6.0 mi West 8.1 mph - N/A   Haze
7:53 PM 30.0 °F 21.7 °F 26.1 °F 85% 29.95 in 6.0 mi West 9.2 mph - N/A   Mostly Cloudy
8:27 PM 30.2 °F 21.3 °F 24.8 °F 80% 29.92 in 7.0 mi NW 10.4 mph - N/A   Mostly Cloudy
8:53 PM 30.0 °F 21.7 °F 24.1 °F 79% 29.95 in 7.0 mi NNW 9.2 mph - N/A   Mostly Cloudy
9:53 PM 30.0 °F 22.4 °F 24.1 °F 79% 29.94 in 7.0 mi NNW 8.1 mph - N/A   Mostly Cloudy
10:53 PM 30.0 °F 24.1 °F 26.1 °F 85% 29.95 in 6.0 mi NW 5.8 mph - N/A   Overcast
11:53 PM 31.1 °F 23.1 °F 27.0 °F 85% 29.96 in 5.0 mi NNW 9.2 mph - N/A   Overcast